Theta_e
309 308 306 305 305 305 303 295 283 295 300 287 286 284 289 291 288 291 290 289 288 284 284 282 281 282 285 290 289 284 287 277 273 282 287 288 284 277 275 271 272 275 271 270
308 306 305 304 305 306 297 287 288 295 297 282 282 288 289 289 288 288 288 287 289 288 283 277 284 284 290 292 289 283 285 274 269 277 282 285 280 282 283 277 276 270 270 272
307 306 305 305 305 306 297 289 282 288 291 291 286 285 285 285 291 290 290 288 289 285 283 286 282 285 289 291 290 293 289 278 273 269 275 280 272 279 281 279 272 269 269 271
306 305 304 304 306 306 299 288 282 287 281 283 287 287 286 283 284 290 290 286 286 284 277 282 282 286 287 289 293 290 286 274 281 284 285 283 281 280 279 272 274 269 271 270
305 305 304 305 305 306 299 288 286 288 286 290 287 287 283 284 286 287 285 284 288 285 278 283 279 284 285 285 288 287 287 278 282 280 285 283 280 281 280 279 277 271 275 270
305 304 304 305 305 305 295 298 295 291 288 286 286 285 286 286 288 290 290 288 285 282 286 289 288 288 289 288 285 284 283 279 278 277 284 281 276 275 280 280 280 278 270 274
305 304 304 305 304 303 300 298 296 289 282 287 285 288 288 288 288 285 290 290 286 290 293 292 290 289 290 289 289 289 282 281 280 276 279 270 281 287 285 282 283 283 283 282
304 304 304 303 303 302 300 302 298 291 284 288 288 288 288 289 290 288 289 292 293 293 289 282 281 281 283 286 289 287 287 281 276 271 275 279 282 285 281 281 279 286 285 284
303 304 303 303 303 302 298 302 302 297 288 286 291 288 288 284 283 285 290 293 294 291 286 281 278 277 280 280 284 289 288 285 275 275 272 271 277 284 289 287 273 287 288 284
303 303 303 303 303 303 301 302 304 299 289 291 291 285 286 289 287 283 286 288 287 291 280 278 277 275 283 275 276 278 277 277 271 267 265 276 284 287 288 274 276 287 287 285
302 302 302 303 302 303 304 299 302 299 289 291 295 295 289 290 288 282 286 284 285 282 278 277 276 277 278 276 281 278 276 273 270 273 265 266 287 287 279 282 286 287 287 286
301 302 302 302 302 303 305 296 303 302 294 292 297 298 299 297 296 290 289 287 288 287 282 279 279 278 277 278 272 284 275 280 276 277 274 286 288 287 288 289 288 288 287 287
302 302 302 302 302 302 304 298 299 297 291 290 291 292 297 300 299 299 288 290 292 289 293 284 281 280 281 275 277 281 285 288 279 279 284 286 289 291 291 290 288 289 289 288
302 301 302 302 301 302 304 297 299 296 292 284 287 298 294 299 300 299 298 294 294 293 290 284 282 279 285 279 282 280 283 286 283 283 286 288 290 290 290 290 291 291 291 290
301 301 302 302 303 305 302 300 299 299 292 283 284 293 296 298 298 297 297 294 291 287 284 282 280 284 283 283 283 279 285 283 279 279 287 287 288 291 292 290 289 290 290 289
301 301 302 303 304 303 296 288 297 297 295 286 280 291 292 294 296 295 294 293 291 288 285 284 286 290 284 278 277 286 289 290 289 286 290 289 291 291 292 290 290 291 290 289
301 301 301 302 301 295 291 287 294 300 298 287 282 282 291 295 293 291 291 292 290 288 286 283 284 285 286 281 279 287 290 291 291 291 290 287 289 288 291 291 291 292 291 290
301 301 301 301 301 299 291 293 300 298 294 292 281 281 284 292 285 284 290 286 287 287 285 285 283 286 285 280 286 289 290 290 290 290 290 289 290 291 289 290 290 289 287 287
301 301 301 298 296 289 290 300 299 298 293 282 284 279 277 290 286 287 286 288 280 287 282 283 285 282 280 285 287 289 290 289 289 291 290 290 290 290 290 290 288 286 285 285
300 297 292 284 289 300 298 295 288 289 288 287 283 287 279 286 285 283 282 284 281 279 283 286 281 281 288 290 291 291 291 291 291 287 287 288 289 289 289 288 287 286 286 285
295 289 286 291 298 293 288 282 278 281 280 284 285 287 282 288 282 282 285 280 282 277 281 280 280 279 285 290 289 290 290 291 291 291 292 292 291 289 288 287 287 287 285 284
294 292 295 293 289 284 281 278 282 281 280 283 284 284 286 288 290 283 283 281 281 278 284 277 274 282 289 289 289 290 291 291 291 292 292 292 293 290 289 288 287 286 284 281
294 292 287 284 282 274 277 270 278 276 283 284 286 284 286 287 288 282 281 277 275 284 276 275 279 286 289 290 290 290 292 291 291 292 292 292 291 291 289 287 285 283 282 282
286 281 272 277 274 279 280 280 281 285 285 286 288 283 283 283 281 280 277 281 282 275 270 277 281 287 288 289 291 290 289 288 289 290 291 290 289 287 285 282 282 279 280 278
283 283 273 278 283 284 285 287 286 287 288 287 284 284 284 281 278 281 281 278 274 276 276 279 284 289 289 289 291 290 289 285 287 290 289 282 281 284 281 281 282 282 276 277
285 284 280 282 282 281 283 284 285 289 287 287 286 281 278 279 280 279 276 278 273 277 281 285 287 288 289 289 291 291 291 290 290 291 291 290 284 283 285 284 283 279 279 277
283 280 284 283 284 281 282 286 286 290 286 279 281 277 279 280 277 277 280 276 279 282 285 286 289 288 289 289 290 286 289 291 290 291 290 290 291 287 286 285 284 283 283 279
Wind_Speed
40 43 45 45 39 31 8 5 6 4 3 3 2 3 5 4 8 2 3 4 4 4 5 6 6 5 4 4 5 3 3 5 3 4 8 6 3 4 3 5 2 4 5 3
40 43 44 43 40 23 8 7 5 4 2 4 2 3 3 5 7 5 6 3 4 5 3 6 5 4 4 3 1 1 3 2 4 1 4 7 6 10 4 1 3 3 4 3
43 44 46 43 35 19 9 7 7 0 1 3 4 6 6 6 7 4 4 8 8 6 5 3 4 6 6 2 4 6 3 1 7 5 5 3 4 5 9 4 4 1 1 4
42 44 45 40 25 18 8 3 4 7 9 6 6 5 8 12 7 4 7 4 5 6 5 5 4 5 6 6 5 4 5 5 6 6 7 5 6 5 6 5 1 5 5 3
46 45 43 35 24 13 5 7 6 4 6 7 11 7 8 13 8 7 7 8 9 8 6 4 1 4 1 1 6 3 3 4 6 2 8 7 7 8 5 3 1 1 5 7
42 43 42 27 19 6 4 3 6 7 12 8 10 9 12 12 10 4 8 9 9 6 5 2 3 3 2 2 3 2 2 2 3 3 8 5 3 3 4 3 4 4 2 10
44 42 34 21 13 7 4 2 6 5 6 11 9 14 14 13 9 9 9 11 7 4 8 6 5 5 6 7 9 7 3 4 2 4 2 1 4 6 4 3 4 3 5 2
41 37 26 18 11 7 7 3 5 4 5 11 9 17 10 13 6 7 10 6 5 8 6 3 2 3 4 10 12 6 5 3 2 2 2 1 4 6 6 6 2 3 9 5
40 33 25 17 11 8 4 3 3 4 10 8 15 13 16 8 6 7 8 6 4 3 3 2 3 4 7 4 5 7 6 6 5 2 1 4 5 5 4 4 1 12 7 5
36 29 21 14 9 9 3 2 2 4 5 6 11 5 11 7 5 6 6 5 3 3 0 2 3 3 3 1 1 3 2 3 5 1 1 3 2 3 5 6 7 4 4 4
33 28 19 14 13 8 4 1 1 5 4 4 11 10 7 6 5 6 7 5 3 3 1 3 3 2 2 3 3 4 4 3 3 1 4 5 3 2 4 9 3 1 2 4
31 25 18 13 10 7 5 3 2 4 8 3 9 8 9 6 6 8 3 6 4 5 4 1 1 2 3 3 2 3 2 7 5 7 7 8 6 7 2 1 1 2 5 4
27 21 16 10 6 6 5 4 6 7 6 5 7 6 5 11 8 5 7 1 5 2 5 4 3 1 4 3 5 5 5 5 4 5 6 8 8 3 4 1 3 3 4 3
23 18 12 10 7 6 6 5 2 5 5 6 2 1 5 4 9 8 5 8 5 7 3 2 2 2 4 3 4 2 6 4 5 4 5 3 3 4 5 3 1 6 7 5
22 15 10 9 5 8 7 5 4 1 8 5 4 5 3 5 8 9 9 8 7 3 2 2 3 3 3 3 1 4 3 7 4 7 8 6 2 6 4 4 3 7 7 6
22 15 10 10 10 10 7 6 4 2 6 6 4 0 3 2 7 7 6 3 1 3 4 4 3 5 5 0 3 7 1 5 4 4 4 6 6 3 5 6 6 5 2 4
21 17 14 15 14 7 4 6 3 5 3 6 4 3 3 4 4 2 2 3 1 3 1 1 2 2 4 2 5 6 11 7 7 4 5 3 2 5 6 6 5 3 7 6
22 19 19 18 16 8 5 4 6 4 3 5 5 3 4 5 2 2 2 2 1 3 3 3 2 1 3 4 6 6 10 4 5 6 3 4 7 6 2 5 7 8 7 6
23 23 20 5 5 3 2 3 6 1 6 4 4 6 5 4 3 4 2 3 1 3 3 4 3 4 6 7 5 7 2 3 3 5 2 2 3 4 5 9 8 8 6 6
20 4 6 3 2 3 3 8 6 6 3 3 3 4 3 6 3 1 4 2 3 2 6 2 3 6 7 7 8 7 3 2 2 3 4 2 4 8 7 8 6 6 5 5
4 4 3 1 2 3 4 2 4 1 1 2 4 6 7 2 5 4 3 4 3 1 5 5 4 4 6 5 7 5 3 2 5 5 6 7 8 7 7 6 6 5 6 3
7 8 5 3 2 3 5 3 2 3 6 3 5 5 7 4 5 4 2 3 2 4 1 3 4 5 7 8 7 4 2 0 4 5 7 8 8 7 6 5 5 5 5 5
3 4 4 5 1 4 7 7 4 3 4 4 6 6 5 4 4 3 3 2 4 0 2 5 6 3 6 7 6 5 6 5 3 5 6 7 7 7 5 4 4 7 5 5
4 5 4 5 3 5 6 6 6 5 6 6 8 4 5 2 4 3 5 4 2 1 3 6 4 6 7 7 6 6 6 6 2 1 4 6 7 7 6 6 7 6 6 5
3 3 4 4 3 2 1 3 5 3 5 6 5 4 5 2 4 2 3 2 4 6 6 5 4 6 7 7 6 6 6 6 5 3 1 2 4 5 5 5 6 6 4 5
2 3 3 2 5 4 4 2 3 3 5 5 4 4 4 3 5 4 6 5 6 5 5 3 5 6 5 5 6 6 7 6 6 6 6 6 6 7 8 5 6 6 6 7
2 1 2 3 4 3 2 0 3 3 5 3 4 5 7 2 3 4 5 5 5 4 3 3 5 6 5 6 6 5 4 3 2 2 3 3 3 6 5 6 7 8 8 8
Wind_Direction
153 147 145 145 143 141 81 95 90 265 331 96 143 162 200 188 145 94 103 116 177 124 146 86 58 93 77 26 301 21 177 157 267 98 164 92 7 1 22 87 328 43 111 268
151 146 145 146 150 151 110 90 97 318 355 143 181 243 236 153 127 161 157 145 94 101 104 96 127 114 108 296 127 71 282 322 347 50 305 17 37 349 25 16 78 357 98 258
154 151 151 153 154 122 92 119 116 58 326 280 171 174 193 132 177 159 131 119 115 125 114 104 137 146 174 220 277 154 40 315 173 192 213 177 41 7 2 32 61 257 241 283
155 153 153 156 142 148 102 112 155 173 171 226 220 165 160 156 157 171 120 135 150 130 121 172 210 111 128 216 268 168 153 216 188 241 202 141 115 99 32 67 281 102 260 299
153 152 156 154 145 155 84 130 137 161 143 132 187 176 177 165 145 152 166 150 124 100 126 129 87 92 322 173 308 352 258 298 318 291 166 120 118 116 99 47 115 137 228 284
154 154 157 151 154 159 118 215 89 110 158 167 179 186 162 164 133 199 152 127 99 121 181 132 124 67 27 281 265 311 285 295 333 301 152 132 40 253 149 194 219 194 168 234
154 155 148 147 143 70 122 128 103 96 176 177 169 158 155 164 164 166 143 123 119 177 86 57 35 329 268 246 248 205 230 312 329 265 50 115 239 207 220 97 284 332 284 256
153 146 138 136 130 56 115 102 113 125 136 156 148 160 148 132 168 110 110 77 114 117 106 72 195 288 266 238 244 186 141 83 351 90 16 122 168 209 193 166 230 301 276 53
149 141 139 134 118 85 61 111 119 121 124 195 164 155 142 144 142 103 97 85 101 103 109 131 215 216 227 142 184 208 143 118 115 355 280 220 229 347 85 103 325 257 270 67
139 131 130 129 139 193 203 104 98 103 104 164 153 127 141 148 118 108 104 122 126 100 119 148 213 224 116 116 176 145 41 340 159 204 212 304 69 23 317 98 234 284 122 130
130 128 141 158 199 218 117 178 192 116 104 90 116 115 135 121 110 128 184 78 314 71 83 131 242 99 246 62 263 138 152 132 242 62 58 304 300 358 116 217 249 259 88 90
134 143 148 176 200 92 82 94 321 90 80 156 87 85 39 87 184 125 139 170 127 171 93 295 46 18 63 172 266 141 227 178 185 150 217 222 241 221 207 138 211 314 110 132
142 140 158 169 116 86 89 115 120 72 98 43 47 61 18 33 51 106 121 50 128 172 167 167 210 79 113 167 241 197 244 170 153 74 276 243 241 152 130 153 68 304 154 89
144 146 150 135 139 70 84 96 76 84 106 100 354 38 35 17 58 55 85 130 80 120 92 117 156 168 163 227 222 147 202 112 192 232 258 35 321 147 101 63 44 308 89 85
149 140 136 134 126 107 81 74 31 93 121 139 138 79 47 62 80 74 76 101 109 127 74 99 228 239 63 289 33 272 201 233 174 227 238 167 174 134 183 155 74 69 70 25
144 135 124 98 111 89 62 44 329 99 108 98 101 348 98 104 106 112 130 152 176 154 145 212 236 180 110 214 254 246 300 303 184 184 138 145 167 167 82 99 77 96 56 322
128 123 108 87 73 65 90 166 211 348 82 92 82 79 187 152 114 64 57 46 357 105 295 218 192 301 128 208 229 265 298 288 303 258 157 154 166 145 117 133 129 147 76 69
119 112 107 102 97 100 37 339 21 15 84 92 105 113 80 156 160 109 175 135 88 307 200 328 183 71 154 250 255 285 242 218 51 33 48 154 130 140 170 125 92 74 61 55
118 116 116 85 36 66 233 311 317 343 112 125 106 140 191 164 168 144 28 117 82 247 191 214 135 223 217 215 225 271 359 83 38 13 322 40 122 143 113 96 80 77 61 55
130 106 64 37 293 100 50 12 24 13 343 40 130 136 162 131 143 134 99 141 208 201 237 133 192 246 234 205 207 224 228 108 173 175 307 250 98 91 91 97 93 95 93 76
67 85 86 80 309 69 61 93 100 235 45 207 212 129 132 248 115 139 153 186 220 167 257 139 253 261 227 168 126 97 61 344 290 160 118 109 109 105 104 101 112 111 101 105
143 120 115 107 75 57 106 172 224 187 209 188 129 142 147 161 122 111 192 176 99 236 187 79 271 261 141 122 127 158 171 35 41 97 131 128 119 122 127 139 142 129 128 137
113 81 98 99 221 75 166 185 209 198 151 179 128 127 125 40 77 82 107 131 200 86 82 226 226 256 132 143 152 154 127 92 71 98 100 115 128 132 145 162 138 146 154 166
109 112 90 158 203 214 209 178 169 194 128 123 128 98 118 133 71 157 102 208 129 187 217 235 231 184 155 142 152 134 146 136 91 83 164 167 169 183 180 166 163 156 173 196
107 101 138 195 184 193 103 52 85 102 128 109 91 51 88 76 91 193 150 161 229 207 230 220 206 142 131 142 150 159 164 169 181 211 237 197 194 181 207 192 178 181 161 172
66 100 43 61 64 359 18 57 106 135 115 91 78 128 107 186 153 160 199 184 213 238 202 207 122 116 127 151 150 153 157 170 197 209 217 212 202 210 221 179 197 191 178 184
79 350 1 101 103 179 196 246 162 125 96 144 128 119 190 144 161 193 176 207 211 184 146 129 126 128 138 128 129 140 148 167 236 235 246 235 226 191 175 205 215 195 188 190